Dewpoint
24 24 22 20 21 22 28 24 22 18 15 15 13 13 12 11 11 12 12 12 12 12 13 13 16 17 17 18 22 22 33 56 57 57 57 58 60 59 59 59 60 60 61 64 65 63 64 63 62 63 63 63 64 64 66 66 66 66 65 65 64 65 65 64 64 64 63 63 63 63 63 63 64 64 65 64 65 65 66 66 66 66 67 67 67 67
26 24 24 26 26 28 29 32 31 25 22 13 14 14 14 12 13 13 13 15 13 19 11 22 18 19 20 24 25 35 32 50 56 56 57 56 59 59 58 58 59 61 62 64 64 63 63 62 63 63 62 63 62 63 64 65 66 66 65 65 64 64 64 64 64 63 63 63 63 63 63 63 63 63 63 63 64 65 66 66 66 66 66 67 67 66
25 24 27 28 29 35 34 31 28 26 23 19 16 16 16 15 15 16 17 19 17 17 15 20 18 18 22 27 34 40 33 45 54 56 56 56 57 58 57 57 59 61 61 62 63 63 62 63 62 62 62 62 63 63 64 65 66 66 65 65 64 63 63 64 64 63 63 64 64 64 63 63 63 64 64 64 64 65 64 66 66 66 66 66 66 66
24 22 26 24 32 31 30 30 27 28 26 21 19 17 15 17 14 13 24 26 20 19 21 22 18 20 28 41 44 46 45 43 43 50 56 57 57 58 57 57 58 60 61 61 62 62 62 62 62 62 61 62 63 63 64 65 65 65 65 65 64 63 64 64 64 64 64 64 65 65 64 64 64 63 64 65 65 65 65 65 65 66 66 65 65 65
24 20 25 29 28 26 26 30 27 22 18 26 23 16 14 15 14 13 17 23 27 26 30 21 22 21 27 35 42 46 48 49 48 46 50 56 57 58 58 59 59 59 61 61 62 62 62 61 61 61 61 61 62 63 63 64 65 65 65 65 64 64 64 65 64 64 64 64 64 63 63 64 64 64 64 64 64 65 65 65 65 65 66 66 65 65
25 24 27 22 22 22 26 24 25 23 18 20 28 21 18 18 15 15 22 16 16 15 26 21 16 17 26 35 39 44 47 48 49 45 44 55 56 56 56 58 59 60 62 61 62 62 62 61 61 61 61 61 61 62 64 65 65 65 65 65 65 64 65 64 64 64 64 63 62 62 62 61 62 62 62 62 62 63 64 63 65 65 65 65 65 65
25 30 25 24 24 23 20 20 24 23 17 19 16 24 20 15 19 18 18 16 12 14 25 30 16 16 23 25 36 44 46 46 48 50 45 50 55 55 56 56 58 60 61 61 62 62 61 61 61 61 61 61 61 62 64 65 65 66 65 65 64 64 64 64 64 64 63 63 63 63 62 62 61 61 62 63 64 64 63 64 65 65 66 65 65 65
21 24 23 27 26 23 21 19 24 20 17 13 27 23 20 17 18 21 17 14 13 27 30 25 18 17 15 16 41 45 46 45 47 47 49 51 55 55 56 57 59 59 61 61 61 61 60 60 60 60 61 61 61 63 64 65 65 65 65 64 64 64 64 64 64 64 64 63 63 64 63 62 62 62 62 63 64 64 64 64 64 65 65 65 65 65
31 26 27 24 24 19 19 20 27 21 16 16 28 20 18 16 21 19 17 20 21 21 17 19 24 17 17 23 37 44 42 43 42 46 48 51 54 56 57 59 59 61 61 60 59 59 60 60 60 60 61 61 62 63 62 65 65 65 65 64 64 64 64 64 64 64 64 64 64 63 63 62 62 63 63 63 63 63 64 64 64 64 64 64 64 64
19 24 23 22 20 19 20 18 21 19 17 19 24 22 23 21 22 19 19 19 22 20 18 19 25 14 11 24 35 42 41 41 43 45 47 51 53 56 58 58 59 59 58 58 59 59 59 60 60 61 61 61 62 64 63 65 65 65 65 64 64 63 64 64 64 64 64 64 64 63 63 63 62 62 62 62 63 63 64 64 64 64 63 63 63 64
24 35 23 19 20 20 20 20 21 18 16 25 21 18 18 20 24 25 25 22 20 16 17 18 24 16 9 23 33 40 43 44 43 46 48 50 54 57 56 56 57 57 58 57 59 59 59 60 61 61 61 61 62 64 63 64 64 65 64 63 63 64 64 64 63 62 63 63 64 64 65 64 63 62 63 62 63 63 63 62 62 62 61 62 62 63
19 18 15 16 24 15 17 15 20 20 17 18 18 18 18 19 21 20 21 23 16 13 19 18 22 23 12 20 35 39 43 44 45 45 47 48 50 54 54 55 55 56 56 57 58 58 58 59 60 60 61 61 61 63 63 64 64 63 63 63 63 63 63 62 60 62 63 63 63 63 64 64 63 62 62 62 62 62 62 62 60 60 60 60 61 62
22 19 18 18 35 14 14 11 15 18 18 15 18 16 14 15 17 14 15 14 13 14 20 23 23 18 17 29 41 45 47 48 49 48 47 48 52 53 53 54 56 55 55 54 55 57 57 58 58 59 60 60 60 61 63 63 63 62 63 62 61 60 61 61 60 62 62 62 61 61 61 62 62 62 62 63 62 62 61 60 59 59 59 59 60 61
20 23 20 19 17 22 15 15 15 14 17 16 15 18 14 12 12 9 12 15 15 18 20 23 26 20 26 33 44 46 49 50 50 50 49 49 53 52 53 55 55 54 56 55 55 57 58 58 58 59 60 59 60 62 63 62 62 62 62 61 60 59 61 61 62 62 62 62 62 62 61 61 60 60 60 60 60 60 60 60 60 60 59 59 61 61
16 18 18 18 18 21 16 16 16 17 19 15 16 14 17 15 12 12 10 11 10 12 24 27 20 18 22 36 47 49 51 51 51 52 53 53 53 54 54 55 53 54 55 56 57 58 58 59 59 60 60 60 61 62 62 62 62 62 61 59 58 58 60 61 61 61 62 61 62 62 61 60 61 60 60 60 60 60 60 60 61 60 60 59 59 59
16 19 20 20 17 18 16 17 18 18 18 18 18 15 17 17 24 11 20 18 18 16 20 24 23 30 35 41 45 50 50 51 53 53 53 53 53 53 53 54 54 55 55 56 57 58 59 59 60 60 60 61 61 62 62 62 62 62 60 59 59 59 60 61 61 61 61 61 62 62 61 61 60 60 60 59 59 60 60 61 60 60 60 60 59 60
16 16 21 22 20 16 16 18 16 15 16 22 14 16 16 22 22 24 24 27 24 19 17 29 31 35 38 38 45 47 48 48 51 53 53 52 52 53 54 54 55 55 55 56 57 58 58 59 60 60 61 61 62 61 61 62 61 61 60 60 60 60 61 60 61 62 61 61 61 61 61 61 60 60 60 59 59 59 60 61 61 59 58 60 60 59
18 20 25 16 14 15 19 18 18 19 18 18 17 18 24 23 29 23 14 20 17 14 17 31 34 36 29 31 43 44 45 47 49 50 51 52 52 52 54 55 55 56 56 57 58 58 58 58 58 60 61 61 60 62 61 62 62 62 61 61 60 60 61 61 61 61 61 60 61 61 61 61 61 60 61 60 59 59 58 59 59 59 58 58 58 58
20 17 19 18 16 17 23 20 18 21 22 16 17 19 17 18 15 22 21 15 14 14 16 25 29 32 33 33 41 42 43 46 48 49 50 49 50 52 53 54 54 55 55 57 58 58 58 58 59 59 60 61 60 61 62 62 62 63 61 61 60 61 61 62 62 61 61 61 61 60 60 60 60 60 59 59 58 58 58 57 58 58 58 58 57 57
29 20 20 22 20 21 24 18 19 18 20 24 22 18 25 24 27 17 18 23 20 12 17 21 28 23 32 38 42 43 44 46 48 47 49 49 50 51 52 52 53 54 55 56 56 57 58 59 59 59 58 60 61 61 62 62 61 62 61 60 60 61 61 61 62 61 60 60 60 60 60 59 58 57 57 58 58 57 57 57 57 57 58 57 57 57
24 29 17 21 21 19 21 27 22 21 21 19 22 22 20 29 26 24 26 20 16 17 16 18 20 26 36 41 43 44 45 47 48 48 49 49 50 51 51 52 53 54 54 54 55 56 57 57 58 59 60 60 61 62 62 62 61 61 60 60 59 60 60 61 60 60 60 59 60 59 59 58 58 58 57 57 58 58 58 58 57 57 58 56 57 57
24 23 20 27 18 19 22 28 29 27 25 21 25 22 19 22 20 16 16 23 23 19 18 18 16 29 36 43 45 44 47 48 48 48 49 50 51 51 52 53 53 53 54 54 54 55 56 57 57 58 59 60 60 61 61 61 61 61 60 59 59 59 60 61 60 60 59 59 60 59 59 59 58 57 56 58 58 58 57 57 57 58 56 57 56 56
34 31 27 19 19 25 27 28 30 31 29 28 23 25 23 28 27 18 11 21 23 22 24 26 19 25 42 46 45 47 48 48 48 48 48 50 51 52 53 53 54 54 54 54 54 55 56 56 57 57 58 59 59 59 60 60 59 60 59 59 59 59 59 60 60 60 59 60 59 59 59 58 58 57 57 57 57 57 56 57 58 56 57 56 55 56
49 30 25 22 24 27 27 26 29 31 31 30 33 35 32 26 30 26 21 26 22 28 21 21 18 26 44 47 47 48 48 48 49 49 49 50 51 51 52 53 53 54 54 54 53 55 56 56 57 56 57 57 57 57 56 55 56 56 56 57 58 58 59 59 60 60 59 59 59 59 59 58 58 57 57 57 56 57 56 56 57 56 56 55 55 54
26 31 26 23 23 24 26 26 25 26 31 33 33 35 34 31 29 30 31 31 22 28 24 19 14 30 44 47 47 48 48 48 48 48 49 49 50 50 50 51 52 53 53 54 54 55 56 56 57 57 57 56 56 55 55 55 56 56 56 56 57 58 58 59 59 59 59 59 59 59 59 59 58 58 57 57 57 57 56 56 56 56 54 56 55 55
30 35 28 20 19 19 19 20 21 22 29 32 33 33 33 32 34 30 20 22 16 27 26 21 22 35 45 46 47 47 46 46 47 47 47 48 48 48 48 48 48 49 50 50 51 52 53 55 56 56 56 56 55 54 53 53 55 56 57 57 58 58 58 58 59 59 58 59 59 59 59 59 59 58 57 57 57 56 56 56 56 56 56 54 54 55
36 37 35 32 24 22 24 24 29 31 32 31 30 33 33 35 34 32 27 22 16 26 26 29 35 39 41 43 46 46 45 45 44 45 45 45 46 46 46 46 46 47 47 48 49 50 51 52 54 56 56 55 55 55 56 55 56 57 57 57 58 58 58 58 59 59 58 58 58 58 58 58 58 59 57 57 57 56 55 55 56 55 54 55 55 55
39 33 36 36 36 34 28 32 33 32 33 32 33 35 35 36 36 33 24 22 32 26 20 36 39 40 40 42 45 43 43 43 43 44 44 44 44 44 44 45 45 45 46 47 47 48 48 50 50 52 54 55 55 56 56 56 56 56 57 57 57 57 57 58 58 58 57 58 58 58 58 59 60 59 58 57 56 56 56 55 56 55 56 55 55 55
38 31 36 36 35 36 37 35 32 31 31 31 33 34 36 37 38 37 34 32 34 24 20 37 40 40 41 43 42 42 42 42 42 42 42 43 43 43 43 42 42 43 43 44 46 47 47 47 48 49 50 53 55 55 55 56 56 56 56 55 55 56 56 57 57 57 57 57 57 57 58 59 59 58 58 56 55 55 55 55 56 55 55 56 56 57
37 31 35 35 35 35 35 35 35 32 32 32 34 34 36 38 37 38 38 38 35 37 38 40 40 39 40 40 41 41 42 42 41 42 42 42 42 42 41 41 41 41 42 42 44 44 44 45 45 45 46 49 52 54 54 54 55 55 56 56 55 55 56 57 56 56 56 56 57 57 57 59 58 59 59 58 56 56 56 56 56 56 55 55 54 55
34 32 35 35 34 34 35 35 35 35 34 33 34 34 36 38 38 39 39 39 40 40 40 39 38 36 39 41 41 41 42 41 40 40 40 40 40 40 40 40 40 41 40 41 41 41 41 43 42 41 43 43 44 48 50 52 54 55 55 55 55 55 55 56 56 56 55 55 55 56 56 56 56 58 58 58 57 58 56 56 58 57 55 56 55 56
38 31 35 35 30 31 35 35 34 35 36 35 34 34 34 35 36 36 36 37 38 38 38 38 36 35 39 41 40 41 40 40 39 39 39 40 40 39 39 39 39 40 40 41 40 40 38 40 39 39 39 39 40 42 44 47 49 50 51 53 54 55 55 56 56 55 55 55 55 56 55 55 55 55 55 55 55 56 56 57 57 57 56 57 57 56
38 33 30 30 28 30 35 35 34 34 33 30 31 33 33 34 35 37 38 39 39 40 38 36 36 38 39 41 39 39 39 39 38 39 39 39 39 39 38 38 38 39 40 41 41 40 38 37 38 39 38 38 39 40 40 40 41 41 43 44 45 47 50 52 53 54 55 56 56 56 57 56 55 55 55 55 56 55 55 56 57 57 57 57 57 57
37 38 33 36 29 30 33 34 34 30 26 27 35 37 35 34 36 36 35 37 40 41 39 39 38 39 40 40 38 37 38 39 39 40 41 40 39 39 39 38 38 39 40 40 41 41 40 40 41 39 37 38 38 40 45 38 39 39 40 40 40 40 41 43 45 47 50 52 54 55 55 55 55 55 55 56 56 56 56 56 56 56 57 58 58 58
36 36 32 37 30 30 32 32 29 26 26 34 38 36 37 37 36 36 36 37 39 40 40 39 39 39 39 39 39 38 39 40 40 40 40 40 40 39 39 38 38 39 39 40 40 41 41 41 39 39 39 38 38 39 41 35 36 37 37 38 38 39 39 39 40 41 42 43 46 51 54 55 55 55 54 54 55 55 55 55 55 55 54 57 58 58
32 31 31 31 31 31 29 25 20 22 32 36 35 36 36 36 36 37 35 36 38 39 38 37 37 38 38 38 39 39 38 38 39 40 40 40 40 39 39 39 39 39 39 40 39 40 41 41 41 40 40 42 39 39 39 35 35 35 35 35 36 37 38 38 38 40 40 39 41 40 41 45 48 49 52 54 55 55 55 54 54 54 54 55 56 56
36 35 32 29 31 28 28 27 27 33 32 32 32 32 34 32 33 33 30 33 38 39 38 37 37 38 37 38 38 38 38 36 35 36 39 39 39 39 40 40 40 39 39 39 40 40 41 41 42 41 41 41 40 39 41 42 37 35 35 34 34 34 35 36 36 37 39 38 41 40 39 39 41 43 45 48 50 52 53 54 54 54 55 56 56 56
34 32 34 30 28 29 27 26 27 26 25 28 32 33 36 36 36 36 36 32 37 38 39 37 36 37 37 38 38 38 37 33 31 32 37 39 38 37 37 38 39 39 39 39 39 40 40 41 42 42 41 41 41 41 40 38 38 38 38 37 34 33 34 34 35 35 36 36 37 38 38 38 38 38 40 42 45 48 52 53 54 54 55 56 56 56
30 31 32 30 29 28 26 24 24 22 26 30 31 33 35 36 37 36 34 30 36 38 39 37 36 37 37 37 38 39 36 30 30 32 36 38 36 35 34 35 36 38 39 39 39 39 39 40 40 41 40 40 40 41 42 40 39 36 37 38 35 34 34 34 34 35 35 36 36 37 38 39 39 39 39 39 41 43 46 49 51 53 55 55 55 55
28 27 29 27 26 25 25 24 23 27 26 31 32 33 35 37 38 35 28 28 37 38 39 38 37 37 37 37 38 38 34 29 30 33 38 37 37 37 36 33 32 34 36 39 39 38 38 39 38 37 38 38 38 40 38 38 37 38 36 36 35 34 34 35 35 34 35 35 36 37 38 39 40 40 39 39 40 41 42 43 45 48 50 50 50 50
26 26 25 21 22 23 22 24 26 28 31 32 33 34 35 39 36 29 26 31 39 39 40 40 39 39 38 37 39 34 37 38 37 37 37 35 34 32 33 32 31 29 29 30 33 36 38 37 37 36 37 37 39 39 37 35 35 36 37 37 35 35 35 35 35 35 36 35 35 36 37 38 39 41 40 40 40 41 41 42 43 45 46 47 48 48
25 23 24 26 23 21 22 23 25 26 30 34 35 35 36 35 29 28 32 37 39 40 38 35 35 36 35 36 35 35 36 36 37 36 35 34 34 32 30 30 30 30 31 32 33 32 32 32 33 33 32 33 33 35 37 36 34 35 35 35 34 35 35 35 34 35 34 34 34 36 36 37 39 41 41 41 41 41 40 41 42 43 44 44 46 48
25 23 23 24 25 22 21 22 22 21 29 35 35 33 36 32 31 34 35 37 40 37 34 33 32 32 33 32 33 33 34 32 31 29 29 30 30 29 30 30 31 31 31 32 31 31 32 31 32 32 33 33 33 33 33 34 34 34 34 34 34 35 34 35 35 34 34 35 35 35 36 37 38 39 39 40 41 40 40 40 41 42 43 44 43 45
30 24 24 25 27 22 22 22 22 28 32 35 35 30 33 35 37 37 37 35 38 36 32 32 32 32 32 32 31 30 30 30 30 31 30 30 30 31 30 31 31 31 31 30 30 31 31 31 31 32 33 33 33 34 34 34 34 34 33 34 35 35 35 34 34 34 35 35 35 35 34 34 35 37 37 38 39 39 39 40 40 40 41 42 41 39
31 28 28 26 31 28 26 28 32 35 36 37 35 35 37 37 38 37 37 37 36 37 38 32 32 32 31 30 30 29 29 30 30 30 30 30 30 30 30 30 31 31 31 31 31 32 31 30 32 32 32 33 34 34 34 34 34 33 33 34 35 34 34 35 35 35 34 34 34 34 32 34 34 35 35 36 36 37 36 38 39 37 38 40 40 41
31 32 33 31 31 33 34 36 36 36 37 37 38 38 37 37 37 37 37 36 37 38 38 33 31 30 30 30 28 29 29 30 30 30 30 30 30 30 31 30 30 32 32 32 32 32 31 32 33 33 33 33 34 34 35 35 34 34 35 35 35 34 34 34 35 34 34 33 33 33 31 33 33 33 35 35 34 35 35 36 36 36 37 38 39 40
30 31 31 29 32 29 26 34 33 34 36 36 36 38 38 39 38 39 37 37 37 37 37 37 34 33 32 31 30 30 30 30 30 30 29 29 29 30 30 31 32 32 32 31 33 33 32 31 31 33 33 34 34 34 34 34 34 34 34 34 34 34 34 34 34 34 34 34 33 34 34 34 33 33 34 34 34 34 34 34 35 36 35 36 37 38
27 31 29 30 30 28 29 33 34 36 37 38 38 37 36 37 38 38 39 39 39 39 39 38 37 36 37 36 36 35 33 31 29 28 27 28 29 29 29 30 31 31 32 33 34 34 32 32 32 34 34 34 34 34 34 33 33 32 33 33 33 33 33 34 34 34 34 34 34 33 33 33 32 32 32 33 33 32 32 33 34 34 34 34 36 36
26 31 27 29 30 31 33 34 34 34 33 35 37 38 39 39 39 38 38 38 38 38 37 38 38 38 38 37 38 37 36 35 35 33 29 27 29 29 30 31 31 32 32 32 33 34 32 32 32 34 34 34 34 34 34 33 33 32 33 33 33 33 33 33 34 34 34 33 33 33 33 33 33 32 32 33 33 33 33 32 33 34 35 38 35 35
29 28 30 29 27 27 27 30 33 25 27 31 33 35 36 37 38 39 39 39 39 38 38 37 38 39 39 39 38 38 36 34 33 32 28 28 29 30 31 31 31 31 32 33 34 34 34 35 35 35 34 34 34 34 33 33 33 33 32 32 32 33 33 33 33 33 33 33 33 33 32 33 32 32 33 32 32 33 34 31 32 32 33 34 34 34
28 30 28 25 24 24 29 31 31 31 31 31 31 29 31 33 35 36 35 34 34 35 36 35 34 33 33 32 33 35 32 29 28 28 28 27 29 31 31 31 30 31 31 32 32 33 34 35 35 35 34 34 34 34 33 33 33 33 32 32 32 33 33 33 33 32 32 32 32 32 33 32 32 33 32 33 33 34 33 34 35 32 32 32 34 34